| time (UTC) | temp C | wind direction | speed KPH | gust KPH | rain 1hr cm | rain 24hr cm | rain mn cm | humidity % | barometer mb |
| 20260508183040 | 11 | 0 | 1.6 | 6.4 | 0.00 | 2.41 | 0.13 | 71 | 1001.0 |
| 20260508181549 | 11 | 106 | 3.2 | 8.0 | 0.00 | 2.41 | 0.13 | 71 | 1001.0 |
| 20260508180046 | 12 | 137 | 3.2 | 14.5 | 0.00 | 2.41 | 0.13 | 70 | 1000.9 |
| 20260508174542 | 13 | 141 | 6.4 | 17.7 | 0.00 | 2.54 | 0.13 | 62 | 1000.6 |
| 20260508173044 | 13 | 179 | 3.2 | 14.5 | 0.00 | 2.54 | 0.13 | 67 | 1000.7 |
| 20260508171541 | 13 | 61 | 4.8 | 14.5 | 0.00 | 2.54 | 0.13 | 65 | 1001.0 |
| 20260508170044 | 13 | 129 | 4.8 | 14.5 | 0.00 | 2.54 | 0.13 | 62 | 1001.1 |
| 20260508164546 | 12 | 108 | 4.8 | 14.5 | 0.00 | 2.54 | 0.13 | 69 | 1001.0 |
| 20260508163045 | 12 | 144 | 4.8 | 11.3 | 0.00 | 2.54 | 0.13 | 71 | 1001.0 |
| 20260508161545 | 11 | 0 | 3.2 | 11.3 | 0.00 | 2.54 | 0.13 | 75 | 1001.1 |
| 20260508160042 | 11 | 148 | 4.8 | 9.7 | 0.00 | 2.54 | 0.13 | 73 | 1001.0 |
| 20260508154546 | 12 | 124 | 4.8 | 12.9 | 0.00 | 2.54 | 0.13 | 73 | 1001.0 |
| 20260508153041 | 12 | 143 | 3.2 | 12.9 | 0.00 | 2.54 | 0.13 | 73 | 1001.0 |
| 20260508151545 | 12 | 151 | 3.2 | 8.0 | 0.00 | 2.54 | 0.13 | 73 | 1001.0 |
| 20260508150040 | 13 | 151 | 3.2 | 11.3 | 0.00 | 2.54 | 0.13 | 73 | 1000.9 |
| 20260508144546 | 13 | 123 | 4.8 | 12.9 | 0.00 | 2.54 | 0.13 | 75 | 1001.0 |
| 20260508143046 | 13 | 146 | 3.2 | 11.3 | 0.00 | 2.54 | 0.13 | 75 | 1001.3 |
| 20260508141546 | 12 | 139 | 1.6 | 9.7 | 0.00 | 2.54 | 0.13 | 78 | 1001.4 |
| 20260508140044 | 12 | 139 | 3.2 | 12.9 | 0.00 | 2.54 | 0.13 | 80 | 1001.6 |
| 20260508134544 | 11 | 137 | 3.2 | 8.0 | 0.00 | 2.54 | 0.13 | 83 | 1002.1 |
| 20260508133046 | 10 | 148 | 3.2 | 11.3 | 0.00 | 2.54 | 0.13 | 86 | 1002.1 |
| 20260508131545 | 10 | 141 | 1.6 | 11.3 | 0.00 | 2.54 | 0.13 | 90 | 1001.7 |
| 20260508130042 | 10 | 171 | 4.8 | 12.9 | 0.00 | 2.54 | 0.13 | 92 | 1001.7 |
| 20260508124540 | 10 | 105 | 1.6 | 8.0 | 0.00 | 2.54 | 0.13 | 94 | 1001.9 |
| 20260508123044 | 9 | 0 | 1.6 | 6.4 | 0.00 | 2.54 | 0.13 | 95 | 1001.7 |
| 20260508121543 | 8 | 65 | 0.0 | 3.2 | 0.00 | 2.54 | 0.13 | 95 | 1001.7 |
| 20260508120044 | 8 | 0 | 0.0 | 4.8 | 0.00 | 2.54 | 0.13 | 95 | 1002.1 |
| 20260508114551 | 7 | 0 | 0.0 | 4.8 | 0.00 | 2.72 | 0.13 | 95 | 1002.3 |
| 20260508113045 | 6 | 62 | 0.0 | 3.2 | 0.00 | 2.69 | 0.10 | 95 | 1002.0 |
| 20260508111557 | 5 | 0 | 0.0 | 1.6 | 0.00 | 2.69 | 0.10 | 95 | 1002.1 |
| 20260508110040 | 5 | 0 | 0.0 | 0.0 | 0.00 | 2.69 | 0.10 | 95 | 1002.4 |
| 20260508104544 | 5 | 0 | 0.0 | 1.6 | 0.00 | 2.77 | 0.10 | 95 | 1002.6 |
| 20260508103042 | 5 | 62 | 0.0 | 4.8 | 0.00 | 2.77 | 0.10 | 95 | 1002.5 |
| 20260508101545 | 4 | 0 | 0.0 | 1.6 | 0.00 | 2.77 | 0.10 | 94 | 1002.5 |
| 20260508100045 | 4 | 0 | 0.0 | 0.0 | 0.00 | 2.77 | 0.10 | 95 | 1002.2 |
| 20260508094542 | 3 | 60 | 1.6 | 3.2 | 0.00 | 2.82 | 0.10 | 94 | 1002.1 |
| 20260508093045 | 3 | 0 | 0.0 | 0.0 | 0.00 | 2.82 | 0.10 | 94 | 1001.9 |
| 20260508091554 | 3 | 0 | 0.0 | 0.0 | 0.00 | 2.82 | 0.10 | 94 | 1001.7 |
| 20260508090047 | 3 | 0 | 0.0 | 0.0 | 0.00 | 2.82 | 0.10 | 94 | 1001.9 |
| 20260508084541 | 4 | 60 | 1.6 | 4.8 | 0.00 | 2.82 | 0.10 | 94 | 1002.0 |
| 20260508083048 | 4 | 60 | 0.0 | 1.6 | 0.00 | 2.82 | 0.08 | 94 | 1001.5 |
| 20260508081546 | 4 | 0 | 0.0 | 0.0 | 0.00 | 2.82 | 0.08 | 94 | 1001.4 |
| 20260508080048 | 5 | 0 | 0.0 | 0.0 | 0.00 | 2.82 | 0.08 | 94 | 1001.0 |
| 20260508074544 | 5 | 0 | 0.0 | 3.2 | 0.00 | 2.82 | 0.08 | 94 | 1001.3 |
| 20260508073052 | 5 | 59 | 3.2 | 6.4 | 0.00 | 2.82 | 0.08 | 94 | 1001.1 |
| 20260508071541 | 5 | 0 | 1.6 | 4.8 | 0.00 | 2.82 | 0.08 | 94 | 1001.3 |
| 20260508070041 | 6 | 0 | 0.0 | 0.0 | 0.00 | 2.82 | 0.08 | 94 | 1001.3 |
| 20260508064540 | 6 | 0 | 0.0 | 0.0 | 0.00 | 2.87 | 0.08 | 94 | 1001.2 |
| 20260508063045 | 6 | 0 | 0.0 | 0.0 | 0.00 | 2.87 | 0.08 | 94 | 1001.3 |
| 20260508061542 | 6 | 0 | 0.0 | 0.0 | 0.00 | 2.87 | 0.08 | 94 | 1001.4 |
| 20260508060048 | 6 | 0 | 0.0 | 0.0 | 0.03 | 2.87 | 0.08 | 95 | 1001.3 |
| 20260508054544 | 6 | 0 | 0.0 | 0.0 | 0.00 | 2.84 | 0.08 | 94 | 1001.4 |
| 20260508053040 | 7 | 0 | 0.0 | 0.0 | 0.00 | 2.84 | 0.08 | 95 | 1001.3 |
| 20260508051549 | 7 | 0 | 0.0 | 0.0 | 0.00 | 2.84 | 0.08 | 95 | 1001.2 |
| 20260508050044 | 7 | 0 | 0.0 | 0.0 | 0.00 | 2.82 | 0.05 | 94 | 1001.4 |
| 20260508044541 | 7 | 0 | 0.0 | 0.0 | 0.00 | 2.82 | 0.05 | 94 | 1001.2 |
| 20260508043049 | 7 | 0 | 0.0 | 0.0 | 0.03 | 2.82 | 0.05 | 94 | 1001.2 |
| 20260508041541 | 7 | 0 | 0.0 | 0.0 | 0.03 | 2.82 | 0.05 | 94 | 1001.2 |
| 20260508040046 | 7 | 0 | 0.0 | 0.0 | 0.03 | 2.82 | 0.03 | 94 | 1001.0 |
| 20260508034548 | 8 | 0 | 0.0 | 0.0 | 0.03 | 2.82 | 0.03 | 94 | 1001.3 |
| 20260508033041 | 8 | 0 | 0.0 | 3.2 | 0.03 | 2.79 | 0.00 | 94 | 1001.4 |
| 20260508031541 | 8 | 0 | 0.0 | 0.0 | 0.03 | 2.79 | 0.00 | 95 | 1001.3 |
| 20260508030040 | 8 | 0 | 0.0 | 1.6 | 0.03 | 2.77 | 0.00 | 95 | 1001.6 |
| 20260508024554 | 8 | 0 | 0.0 | 3.2 | 0.05 | 2.77 | 2.77 | 94 | 1001.4 |
| 20260508023042 | 8 | 0 | 0.0 | 4.8 | 0.03 | 2.74 | 2.74 | 94 | 1001.3 |
| 20260508021542 | 7 | 0 | 0.0 | 4.8 | 0.05 | 2.74 | 2.74 | 94 | 1001.2 |
| 20260508020044 | 7 | 0 | 0.0 | 0.0 | 0.05 | 2.72 | 2.72 | 94 | 1001.3 |
| 20260508014541 | 7 | 0 | 0.0 | 0.0 | 0.05 | 2.72 | 2.72 | 94 | 1001.2 |
| 20260508013046 | 8 | 0 | 0.0 | 0.0 | 0.08 | 2.72 | 2.72 | 94 | 1001.0 |
| 20260508011548 | 8 | 0 | 0.0 | 1.6 | 0.08 | 2.69 | 2.69 | 94 | 1000.9 |
| 20260508010042 | 9 | 0 | 0.0 | 4.8 | 0.08 | 2.67 | 2.67 | 94 | 1001.1 |
| 20260508004548 | 9 | 0 | 0.0 | 4.8 | 0.08 | 2.64 | 2.64 | 94 | 1001.1 |
| 20260508003043 | 9 | 0 | 0.0 | 4.8 | 0.10 | 2.62 | 2.62 | 94 | 1001.6 |
| 20260508001542 | 9 | 315 | 0.0 | 4.8 | 0.10 | 2.59 | 2.59 | 94 | 1001.5 |
| 20260508000045 | 9 | 0 | 0.0 | 1.6 | 0.13 | 2.57 | 2.57 | 94 | 1001.5 |
| 20260507234549 | 9 | 0 | 0.0 | 3.2 | 0.15 | 2.54 | 2.54 | 94 | 1001.5 |
| 20260507233047 | 10 | 315 | 0.0 | 3.2 | 0.15 | 2.51 | 2.51 | 94 | 1001.4 |
| 20260507231549 | 10 | 315 | 3.2 | 8.0 | 0.15 | 2.46 | 2.46 | 94 | 1001.6 |
| 20260507230042 | 10 | 316 | 3.2 | 9.7 | 0.18 | 2.44 | 2.44 | 94 | 1001.7 |
| 20260507224541 | 10 | 0 | 1.6 | 4.8 | 0.18 | 2.39 | 2.39 | 94 | 1001.5 |
| 20260507223041 | 10 | 67 | 1.6 | 9.7 | 0.20 | 2.34 | 2.34 | 94 | 1001.8 |
| 20260507221543 | 10 | 237 | 3.2 | 12.9 | 0.25 | 2.31 | 2.31 | 94 | 1001.8 |
| 20260507220042 | 10 | 275 | 3.2 | 8.0 | 0.28 | 2.24 | 2.24 | 94 | 1001.9 |
| 20260507214541 | 10 | 256 | 3.2 | 9.7 | 0.28 | 2.18 | 2.18 | 94 | 1002.1 |
| 20260507213046 | 10 | 303 | 0.0 | 8.0 | 0.33 | 2.13 | 2.13 | 94 | 1002.3 |
| 20260507211544 | 10 | 0 | 0.0 | 8.0 | 0.36 | 2.06 | 2.06 | 94 | 1002.2 |
| 20260507210046 | 10 | 0 | 0.0 | 0.0 | 0.41 | 1.96 | 1.96 | 94 | 1001.4 |
| 20260507204548 | 10 | 0 | 0.0 | 3.2 | 0.43 | 1.88 | 1.88 | 94 | 1001.9 |
| 20260507203045 | 10 | 21 | 0.0 | 4.8 | 0.48 | 1.78 | 1.78 | 94 | 1002.3 |
| 20260507201558 | 10 | 0 | 0.0 | 4.8 | 0.51 | 1.68 | 1.68 | 93 | 1002.9 |
| 20260507200045 | 10 | 0 | 0.0 | 4.8 | 0.51 | 1.55 | 1.55 | 93 | 1002.9 |
| 20260507194551 | 10 | 0 | 0.0 | 4.8 | 0.56 | 1.42 | 1.42 | 93 | 1003.8 |
| 20260507193054 | 10 | 8 | 3.2 | 6.4 | 0.56 | 1.30 | 1.30 | 93 | 1004.0 |
| 20260507191548 | 10 | 23 | 1.6 | 4.8 | 0.56 | 1.14 | 1.14 | 93 | 1004.4 |
| 20260507190046 | 11 | 0 | 0.0 | 4.8 | 0.48 | 1.02 | 1.02 | 93 | 1004.5 |
| 20260507184545 | 11 | 180 | 1.6 | 6.4 | 0.41 | 0.86 | 0.86 | 93 | 1004.6 |